Time,TemperatureF,DewpointF,PressureIn,WindDirection,WindDirectionDegrees,WindSpeedMPH,WindSpeedGustMPH,Humidity,HourlyPrecipIn,Conditions,Clouds,dailyrainin,SolarRadiationWatts/m^2,SoftwareType,DateUTC
2013-06-17 01:33:00,67.0,-37.0,30.04,SSW,199,3.0,3.0,1,0.00,,,0.00,0.000000,,2013-06-17 05:33:00,
2013-06-17 02:33:00,69.0,-35.0,30.05,SSE,167,3.0,3.0,1,0.00,,,0.00,0.000000,,2013-06-17 06:33:00,
2013-06-17 03:33:00,65.0,-18.0,30.03,South,174,2.0,2.0,3,0.07,,,0.07,0.000000,,2013-06-17 07:33:00,
2013-06-17 07:33:00,63.0,-39.0,30.01,South,183,2.0,2.0,1,0.00,,,0.09,0.000000,,2013-06-17 11:33:00,
2013-06-17 08:33:00,66.0,-37.0,30.02,SSE,157,2.0,2.0,1,0.00,,,0.09,19.000000,,2013-06-17 12:33:00,
2013-06-17 09:33:00,68.0,-36.0,30.03,South,173,3.0,3.0,1,0.00,,,0.09,84.000000,,2013-06-17 13:33:00,
2013-06-17 12:10:00,77.0,66.0,30.01,NNW,338,2.0,2.0,68,0.00,,,0.09,250.000000,,2013-06-17 16:10:00,
2013-06-17 12:43:00,77.0,66.0,30.01,NNW,338,2.0,2.0,68,0.00,,,0.09,250.000000,,2013-06-17 16:43:00,
2013-06-17 12:54:00,77.0,66.0,30.01,NNW,338,2.0,2.0,68,0.00,,,0.09,250.000000,,2013-06-17 16:54:00,
2013-06-17 13:02:00,77.0,66.0,30.01,NNW,338,2.0,2.0,68,0.00,,,0.09,250.000000,,2013-06-17 17:02:00,
2013-06-17 13:10:00,78.0,66.0,30.01,ENE,58,3.0,3.0,66,0.00,,,0.09,651.000000,,2013-06-17 17:10:00,
2013-06-17 13:43:00,78.0,66.0,30.01,ENE,58,3.0,3.0,66,0.00,,,0.09,651.000000,,2013-06-17 17:43:00,
2013-06-17 13:52:00,78.0,66.0,30.01,ENE,58,3.0,3.0,66,0.00,,,0.09,651.000000,,2013-06-17 17:52:00,
2013-06-17 14:02:00,78.0,66.0,30.01,ENE,58,3.0,3.0,66,0.00,,,0.09,651.000000,,2013-06-17 18:02:00,
2013-06-17 14:10:00,76.0,65.0,30.01,WNW,294,2.0,2.0,69,0.00,,,0.09,684.000000,,2013-06-17 18:10:00,
2013-06-17 14:43:00,76.0,65.0,30.01,WNW,294,2.0,2.0,69,0.00,,,0.09,684.000000,,2013-06-17 18:43:00,
2013-06-17 14:53:00,76.0,65.0,30.01,WNW,294,2.0,2.0,69,0.00,,,0.09,684.000000,,2013-06-17 18:53:00,
2013-06-17 15:02:00,76.0,65.0,30.01,WNW,294,2.0,2.0,69,0.00,,,0.09,684.000000,,2013-06-17 19:02:00,
2013-06-17 15:10:00,69.0,66.0,30.02,WSW,243,3.0,3.0,90,0.04,,,0.13,412.000000,,2013-06-17 19:10:00,
2013-06-17 15:43:00,69.0,66.0,30.02,WSW,243,3.0,3.0,90,0.04,,,0.13,412.000000,,2013-06-17 19:43:00,
2013-06-17 15:54:00,69.0,66.0,30.02,WSW,243,3.0,3.0,90,0.04,,,0.13,412.000000,,2013-06-17 19:54:00,
2013-06-17 16:02:00,69.0,66.0,30.02,WSW,243,3.0,3.0,90,0.04,,,0.13,412.000000,,2013-06-17 20:02:00,
2013-06-17 16:10:00,69.0,68.0,29.97,West,270,1.0,2.0,96,0.33,,,0.46,196.000000,,2013-06-17 20:10:00,
2013-06-17 16:43:00,69.0,68.0,29.97,West,270,1.0,2.0,96,0.33,,,0.46,196.000000,,2013-06-17 20:43:00,
2013-06-17 16:52:00,69.0,68.0,29.97,West,270,1.0,2.0,96,0.33,,,0.46,196.000000,,2013-06-17 20:52:00,
2013-06-17 17:01:00,69.0,68.0,29.97,West,270,1.0,2.0,96,0.33,,,0.46,196.000000,,2013-06-17 21:01:00,
2013-06-17 18:10:00,79.0,69.0,29.95,NE,47,2.0,2.0,71,0.00,,,0.46,722.000000,,2013-06-17 22:10:00,
2013-06-17 18:53:00,79.0,69.0,29.95,NE,47,2.0,2.0,71,0.00,,,0.46,722.000000,,2013-06-17 22:53:00,
2013-06-17 19:02:00,79.0,69.0,29.95,NE,47,2.0,2.0,71,0.00,,,0.46,722.000000,,2013-06-17 23:02:00,
2013-06-17 19:10:00,78.0,68.0,29.96,South,182,3.0,3.0,71,0.00,,,0.46,541.000000,,2013-06-17 23:10:00,
2013-06-17 19:33:00,78.0,68.0,29.96,South,182,3.0,3.0,71,0.00,,,0.46,541.000000,,2013-06-17 23:33:00,
2013-06-17 19:43:00,78.0,68.0,29.96,South,182,3.0,3.0,71,0.00,,,0.46,541.000000,,2013-06-17 23:43:00,
2013-06-17 19:53:00,78.0,68.0,29.96,South,182,3.0,3.0,71,0.00,,,0.46,541.000000,,2013-06-17 23:53:00,
2013-06-17 20:01:00,78.0,68.0,29.96,South,182,3.0,3.0,71,0.00,,,0.46,541.000000,,2013-06-18 00:01:00,
2013-06-17 20:10:00,69.0,67.0,29.96,SE,139,2.0,2.0,93,0.00,,,-99.99,321.000000,,2013-06-18 00:10:00,
2013-06-17 20:33:00,69.0,67.0,29.96,SE,139,2.0,2.0,93,0.00,,,-99.99,321.000000,,2013-06-18 00:33:00,
2013-06-17 20:43:00,69.0,67.0,29.96,SE,139,2.0,2.0,93,0.00,,,-99.99,321.000000,,2013-06-18 00:43:00,
2013-06-17 20:52:00,69.0,67.0,29.96,SE,139,2.0,2.0,93,0.00,,,-99.99,321.000000,,2013-06-18 00:52:00,
2013-06-17 21:01:00,69.0,67.0,29.96,SE,139,2.0,2.0,93,0.00,,,-99.99,321.000000,,2013-06-18 01:01:00,
2013-06-17 21:10:00,69.0,68.0,29.96,South,189,1.0,2.0,96,0.01,,,0.47,95.000000,,2013-06-18 01:10:00,
2013-06-17 21:44:00,69.0,68.0,29.96,South,189,1.0,2.0,96,0.01,,,0.47,95.000000,,2013-06-18 01:44:00,
2013-06-17 21:53:00,69.0,68.0,29.96,South,189,1.0,2.0,96,0.01,,,0.47,95.000000,,2013-06-18 01:53:00,
2013-06-17 22:02:00,69.0,68.0,29.96,South,189,1.0,2.0,96,0.01,,,0.47,95.000000,,2013-06-18 02:02:00,
2013-06-17 22:10:00,67.0,66.0,29.97,East,96,3.0,3.0,96,0.03,,,0.50,6.000000,,2013-06-18 02:10:00,
2013-06-17 22:43:00,67.0,66.0,29.97,East,96,3.0,3.0,96,0.03,,,0.50,6.000000,,2013-06-18 02:43:00,
2013-06-17 22:53:00,67.0,66.0,29.97,East,96,3.0,3.0,96,0.03,,,0.50,6.000000,,2013-06-18 02:53:00,
2013-06-17 23:02:00,67.0,66.0,29.97,East,96,3.0,3.0,96,0.03,,,0.50,6.000000,,2013-06-18 03:02:00,
2013-06-17 23:10:00,66.0,65.0,29.96,SSW,213,2.0,2.0,98,0.01,,,0.51,0.000000,,2013-06-18 03:10:00,
2013-06-17 23:43:00,66.0,65.0,29.96,SSW,213,2.0,2.0,98,0.01,,,0.51,0.000000,,2013-06-18 03:43:00,
2013-06-17 23:53:00,66.0,65.0,29.96,SSW,213,2.0,2.0,98,0.01,,,0.51,0.000000,,2013-06-18 03:53:00,